Location: Observatoire
(46.1952°N, 5.3391°E)
Time: 23:11:22
(UTC+01:00)

Courier 1B Rocket - Pass Details

Date: 17 February 2026
Orbit: 920 x 1201 km, 28.2° (Epoch: 11 March)

Event Time Altitude Azimuth Distance (km) Brightness Sun altitude
Rises 21:43:31 0° 234° (SW) 3,581 8.3 -37.4°
Enters shadow 21:46:15 - 220° (SW) 2,874 7.6 -37.8°
Reaches altitude 10° 21:47:14 10° 213° (SSW) 2,672 - -37.9°
Maximum altitude 21:50:50 16° 178° (S) 2,332 - -38.5°
Drops below altitude 10° 21:54:33 10° 144° (SE) 2,768 - -39.1°
Sets 21:58:31 0° 123° (ESE) 3,781 - -39.7°
